St. Petersburg Airport, FL

12:58 AM EDT on May 26, 2017 (GMT -0400)
Saint Petersburg-Clearwater International

Weather History for KPIE - March, 2014

Change the Weather History Date:

Monday, March 3, 2014

  Actual Average Record
Temperature  
Mean Temperature 68 °F -  
Max Temperature 78 °F 75 °F 84 °F (1952)
Min Temperature 57 °F 58 °F 34 °F (1980)
Cooling Degree Days 2    
Growing Degree Days 18 (Base 50)    
Moisture  
Dew Point 60 °F    
Average Humidity 86    
Maximum Humidity 100    
Minimum Humidity 56    
Precipitation  
Precipitation 0.00 in - - ()
Sea Level Pressure  
Sea Level Pressure 30.05 in    
Wind  
Wind Speed 5 mph (South)    
Max Wind Speed 18 mph    
Max Gust Speed -    
Visibility 7 miles    
Events Fog    
Averages and records for this station are not official NWS values.
T = Trace of Precipitation, MM = Missing Value Source: NWS Daily Summary

Daily Weather History Graph

Daily Weather History Graph

Search for Another Location

Airport or City:

Trip Planner

Search our weather history database for the weather conditions in past years. The results will help you decide how hot, cold, wet, or windy it might be!

Date:

Astronomy

Mar. 03, 2014 Rise Set
Actual Time 6:53 AM EST 6:32 PM EST
Civil Twilight 6:29 AM EST 6:55 PM EST
Nautical Twilight 6:02 AM EST 7:23 PM EST
Astronomical Twilight 5:35 AM EST 7:50 PM EST
Moon 8:16 AM EST (3/3) 9:15 PM EST (3/3)
Length of Visible Light 12h 26m
Length of Day
11h 39m
Waxing Crescent, 8% of the Moon is Illuminated
Mar 3
Waxing Crescent
Mar 8
First Quarter
Mar 16
Full
Mar 23
Last Quarter
Mar 30
New

Hourly Weather History & Observations

Time (EST) Temp. Dew Point Humidity Pressure Visibility Wind Dir Wind Speed Gust Speed Precip Events Conditions
12:53 AM 59.0 °F 57.9 °F 96% 30.08 in 10.0 mi ESE 3.5 mph - N/A   Clear
1:53 AM 62.1 °F 60.1 °F 93% 30.05 in 10.0 mi ESE 5.8 mph - N/A   Clear
2:53 AM 59.0 °F 57.0 °F 93% 30.03 in 6.0 mi SE 3.5 mph - N/A   Clear
3:49 AM 57.2 °F 57.2 °F 100% 30.02 in 1.2 mi Calm Calm - N/A   Clear
3:53 AM 57.9 °F 57.0 °F 97% 30.03 in 0.5 mi Calm Calm - N/A Fog Fog
4:08 AM 59.0 °F 57.9 °F 96% 30.02 in 1.2 mi SSE 3.5 mph - N/A   Clear
4:20 AM 57.9 °F 57.0 °F 97% 30.03 in 2.0 mi Calm Calm - N/A   Clear
4:37 AM 57.9 °F 57.9 °F 100% 30.03 in 1.0 mi Calm Calm - N/A   Clear
4:46 AM 57.9 °F 57.0 °F 97% 30.03 in 0.5 mi Calm Calm - N/A Fog Fog
4:53 AM 59.0 °F 57.9 °F 96% 30.04 in 0.8 mi South 3.5 mph - N/A   Clear
4:58 AM 57.9 °F 57.0 °F 97% 30.04 in 2.0 mi South 3.5 mph - N/A   Clear
5:10 AM 57.0 °F 55.9 °F 96% 30.04 in 7.0 mi South 4.6 mph - N/A   Clear
5:53 AM 57.9 °F 57.0 °F 97% 30.05 in 5.0 mi Calm Calm - N/A   Clear
6:04 AM 57.9 °F 57.0 °F 97% 30.05 in 1.8 mi Calm Calm - N/A   Clear
6:37 AM 57.0 °F 55.9 °F 96% 30.05 in 3.0 mi SSE 4.6 mph - N/A   Clear
6:53 AM 57.0 °F 55.9 °F 96% 30.05 in 8.0 mi SSE 5.8 mph - N/A   Partly Cloudy
7:06 AM 59.0 °F 57.9 °F 96% 30.05 in 5.0 mi SSE 4.6 mph - N/A   Mostly Cloudy
7:25 AM 61.0 °F 60.1 °F 97% 30.06 in 7.0 mi South 3.5 mph - N/A   Scattered Clouds
7:53 AM 63.0 °F 61.0 °F 93% 30.07 in 5.0 mi Calm Calm - N/A   Mostly Cloudy
8:07 AM 66.9 °F 62.1 °F 84% 30.08 in 10.0 mi South 5.8 mph - N/A   Scattered Clouds
8:53 AM 69.1 °F 62.1 °F 78% 30.09 in 10.0 mi SSW 8.1 mph - N/A   Clear
9:53 AM 73.9 °F 63.0 °F 68% 30.09 in 10.0 mi SW 9.2 mph - N/A   Partly Cloudy
10:53 AM 77.0 °F 63.0 °F 62% 30.09 in 10.0 mi WSW 13.8 mph - N/A   Scattered Clouds
11:53 AM 78.1 °F 63.0 °F 60% 30.08 in 10.0 mi SW 13.8 mph - N/A   Scattered Clouds
12:53 PM 78.1 °F 62.1 °F 58% 30.06 in 10.0 mi SW 18.4 mph - N/A   Partly Cloudy
1:53 PM 78.1 °F 61.0 °F 56% 30.04 in 10.0 mi SW 15.0 mph - N/A   Clear
2:53 PM 77.0 °F 62.1 °F 60% 30.02 in 10.0 mi SW 15.0 mph - N/A   Mostly Cloudy
3:53 PM 77.0 °F 62.1 °F 60% 30.01 in 10.0 mi SSW 13.8 mph - N/A   Partly Cloudy
4:53 PM 75.9 °F 61.0 °F 60% 30.02 in 10.0 mi SW 12.7 mph - N/A   Scattered Clouds
5:53 PM 72.0 °F 63.0 °F 73% 30.02 in 10.0 mi SW 12.7 mph - N/A   Scattered Clouds
6:53 PM 71.1 °F 64.9 °F 81% 30.03 in 10.0 mi SW 10.4 mph - N/A   Scattered Clouds
7:53 PM 70.0 °F 64.9 °F 84% 30.03 in 10.0 mi SW 6.9 mph - N/A   Mostly Cloudy
8:53 PM 68.0 °F 64.9 °F 90% 30.04 in 10.0 mi SSW 6.9 mph - N/A   Clear
9:53 PM 66.9 °F 64.9 °F 93% 30.04 in 10.0 mi South 5.8 mph - N/A   Scattered Clouds
10:53 PM 66.9 °F 64.9 °F 93% 30.04 in 10.0 mi South 5.8 mph - N/A   Partly Cloudy
11:22 PM 66.0 °F 64.9 °F 96% 30.04 in 10.0 mi SSW 4.6 mph - N/A   Mostly Cloudy
11:35 PM 66.9 °F 64.9 °F 93% 30.04 in 10.0 mi South 4.6 mph - N/A   Overcast
11:53 PM 66.9 °F 64.9 °F 93% 30.04 in 10.0 mi South 4.6 mph - N/A   Overcast